FDX33 DGAA-GCTS

Flight info

Callsign FDX33
Flight time 4h 27m
Altitude 38000
Route KEMOK1D KEMOK UP685 BKO UG851 MIYEC N728 REMGI
Aircraft B77L/H-SDE1E2E3FGHIJ2J3J4J5M1RWXY/LB1D1

Departure

Time 2026-04-21 14:20
Airport Kotoka International Airport (DGAA)

Arrival

Time 2026-04-21 18:48
Airport Tenerife Sur Airport (GCTS)
Time Latitude Longitude Altitude Speed Heading
2026-04-21 13:59 5.60677 -0.17013 226 ft 0 kts 292°
2026-04-21 14:07 5.60667 -0.16990 229 ft 4 kts 295°
2026-04-21 14:07 5.60659 -0.16974 233 ft 4 kts 298°
2026-04-21 14:07 5.60641 -0.16943 227 ft 4 kts 304°
2026-04-21 14:07 5.60636 -0.16936 226 ft 4 kts 306°
2026-04-21 14:08 5.60619 -0.16916 229 ft 4 kts 318°
2026-04-21 14:08 5.60598 -0.16902 226 ft 4 kts 358°
2026-04-21 14:08 5.60586 -0.16904 225 ft 1 kts 22°
2026-04-21 14:08 5.60585 -0.16904 224 ft 1 kts 22°
2026-04-21 14:17 5.60586 -0.16904 224 ft 3 kts 22°
2026-04-21 14:18 5.60685 -0.16863 230 ft 28 kts 22°
2026-04-21 14:18 5.60902 -0.16774 229 ft 35 kts 22°
2026-04-21 14:18 5.61126 -0.16683 227 ft 35 kts 22°
2026-04-21 14:18 5.61266 -0.16627 227 ft 34 kts 21°
2026-04-21 14:19 5.61492 -0.16540 220 ft 35 kts 22°
2026-04-21 14:19 5.61563 -0.16396 221 ft 23 kts 111°
2026-04-21 14:19 5.61420 -0.16358 226 ft 33 kts 198°
2026-04-21 14:19 5.61178 -0.16455 226 ft 92 kts 203°
2026-04-21 14:20 5.60265 -0.16820 246 ft 187 kts 201°
2026-04-21 14:20 5.58958 -0.17375 700 ft 208 kts 203°
2026-04-21 14:20 5.57617 -0.17929 1664 ft 203 kts 204°
2026-04-21 14:20 5.56785 -0.18270 2328 ft 204 kts 202°
2026-04-21 14:21 5.55454 -0.18809 3222 ft 211 kts 202°
2026-04-21 14:21 5.54062 -0.19378 3821 ft 220 kts 205°
2026-04-21 14:21 5.52780 -0.20280 4422 ft 232 kts 226°
2026-04-21 14:21 5.52160 -0.21099 4826 ft 237 kts 239°
2026-04-21 14:22 5.51601 -0.22684 5453 ft 244 kts 263°
2026-04-21 14:22 5.51678 -0.24395 5838 ft 250 kts 286°
2026-04-21 14:22 5.52442 -0.25972 5830 ft 252 kts 313°
2026-04-21 14:22 5.53229 -0.26733 5841 ft 250 kts 328°
2026-04-21 14:23 5.54769 -0.27446 5835 ft 240 kts 352°
2026-04-21 14:23 5.56397 -0.27485 5825 ft 231 kts 15°
2026-04-21 14:23 5.57898 -0.26974 5840 ft 228 kts 26°
2026-04-21 14:23 5.58824 -0.26575 5838 ft 230 kts 26°
2026-04-21 14:24 5.60297 -0.25938 5837 ft 232 kts 26°
2026-04-21 14:24 5.61788 -0.25312 5826 ft 232 kts 19°
2026-04-21 14:24 5.63348 -0.25262 5831 ft 236 kts 345°
2026-04-21 14:24 5.64338 -0.25779 5864 ft 258 kts 321°
2026-04-21 14:25 5.65558 -0.27261 5858 ft 287 kts 305°
2026-04-21 14:25 5.66662 -0.28942 5841 ft 290 kts 305°
2026-04-21 14:25 5.67399 -0.30064 5833 ft 292 kts 305°
2026-04-21 14:25 5.68474 -0.31698 5826 ft 292 kts 305°
2026-04-21 14:26 5.69602 -0.33402 6228 ft 293 kts 305°
2026-04-21 14:26 5.70745 -0.35121 7048 ft 299 kts 306°
2026-04-21 14:26 5.71535 -0.36305 7622 ft 303 kts 306°
2026-04-21 14:26 5.72688 -0.38035 8436 ft 308 kts 307°
2026-04-21 14:27 5.73895 -0.39845 9237 ft 315 kts 307°
2026-04-21 14:27 5.75124 -0.41688 10020 ft 321 kts 307°
2026-04-21 14:27 5.75976 -0.42964 10404 ft 332 kts 307°
2026-04-21 14:27 5.77263 -0.44886 10643 ft 358 kts 307°
2026-04-21 14:28 5.78701 -0.47039 10844 ft 384 kts 306°
2026-04-21 14:28 5.80228 -0.49330 11225 ft 402 kts 306°
2026-04-21 14:28 5.81264 -0.50889 11696 ft 408 kts 306°
2026-04-21 14:28 5.82805 -0.53208 12452 ft 413 kts 306°
2026-04-21 14:29 5.84410 -0.55617 13285 ft 416 kts 305°
2026-04-21 14:29 5.86020 -0.58035 14096 ft 418 kts 305°
2026-04-21 14:29 5.87111 -0.59629 14610 ft 417 kts 308°
2026-04-21 14:29 5.88990 -0.61778 15309 ft 419 kts 316°
2026-04-21 14:30 5.91092 -0.63829 16036 ft 422 kts 317°
2026-04-21 14:30 5.93232 -0.65861 16750 ft 425 kts 317°
2026-04-21 14:30 5.94848 -0.67402 17317 ft 426 kts 317°
2026-04-21 14:30 5.96769 -0.69257 17965 ft 429 kts 316°
2026-04-21 14:31 5.98917 -0.71361 18544 ft 433 kts 316°
2026-04-21 14:31 6.01049 -0.73470 19077 ft 437 kts 315°
2026-04-21 14:31 6.02589 -0.75003 19471 ft 440 kts 315°
2026-04-21 14:31 6.04596 -0.77007 19981 ft 443 kts 315°
2026-04-21 14:32 6.06785 -0.79195 20511 ft 446 kts 315°
2026-04-21 14:32 6.08968 -0.81378 21024 ft 450 kts 315°
2026-04-21 14:32 6.10480 -0.82889 21375 ft 452 kts 315°
2026-04-21 14:32 6.12663 -0.85071 21868 ft 456 kts 315°
2026-04-21 14:33 6.14926 -0.87331 22346 ft 459 kts 315°
2026-04-21 14:33 6.17202 -0.89604 22847 ft 462 kts 315°
2026-04-21 14:33 6.18653 -0.91055 23180 ft 464 kts 315°
2026-04-21 14:33 6.20988 -0.93388 23605 ft 467 kts 315°
2026-04-21 14:34 6.23293 -0.95695 24049 ft 468 kts 314°
2026-04-21 14:34 6.25462 -0.98146 24539 ft 468 kts 309°
2026-04-21 14:34 6.26736 -0.99784 24838 ft 468 kts 307°
2026-04-21 14:34 6.28662 -1.02419 25285 ft 470 kts 306°
2026-04-21 14:35 6.30571 -1.05096 25639 ft 473 kts 306°
2026-04-21 14:35 6.32476 -1.07752 26024 ft 475 kts 306°
2026-04-21 14:35 6.33751 -1.09507 26304 ft 475 kts 307°
2026-04-21 14:35 6.35727 -1.12191 26727 ft 476 kts 307°
2026-04-21 14:36 6.37713 -1.14859 27122 ft 478 kts 307°
2026-04-21 14:36 6.39720 -1.17534 27543 ft 479 kts 308°
2026-04-21 14:36 6.40995 -1.19230 27767 ft 480 kts 308°
2026-04-21 14:36 6.43012 -1.21910 28135 ft 482 kts 308°
2026-04-21 14:37 6.45037 -1.24603 28512 ft 483 kts 308°
2026-04-21 14:37 6.47066 -1.27303 28847 ft 485 kts 308°
2026-04-21 14:37 6.48393 -1.29071 29078 ft 486 kts 308°
2026-04-21 14:37 6.50437 -1.31794 29396 ft 488 kts 308°
2026-04-21 14:38 6.52481 -1.34519 29730 ft 489 kts 308°
2026-04-21 14:38 6.54502 -1.37214 30117 ft 488 kts 308°
2026-04-21 14:38 6.55837 -1.38995 30347 ft 487 kts 308°
2026-04-21 14:38 6.57879 -1.41720 30645 ft 488 kts 307°
2026-04-21 14:39 6.59932 -1.44458 30924 ft 490 kts 307°
2026-04-21 14:39 6.61982 -1.47194 31213 ft 491 kts 307°
2026-04-21 14:39 6.63318 -1.48976 31446 ft 491 kts 307°
2026-04-21 14:39 6.65377 -1.51724 31781 ft 491 kts 307°
2026-04-21 14:40 6.67436 -1.54473 32111 ft 492 kts 307°
2026-04-21 14:40 6.69497 -1.57224 32443 ft 492 kts 307°
2026-04-21 14:40 6.70828 -1.58960 32650 ft 492 kts 309°
2026-04-21 14:40 6.73095 -1.61540 32972 ft 493 kts 313°
2026-04-21 14:41 6.75469 -1.64040 33302 ft 494 kts 313°
2026-04-21 14:41 6.77860 -1.66524 33631 ft 494 kts 313°
2026-04-21 14:41 6.79430 -1.68153 33844 ft 495 kts 313°
2026-04-21 14:41 6.81826 -1.70646 34145 ft 494 kts 313°
2026-04-21 14:42 6.84179 -1.73108 34476 ft 494 kts 313°
2026-04-21 14:42 6.86550 -1.75600 34799 ft 493 kts 313°
2026-04-21 14:42 6.88100 -1.77233 34978 ft 493 kts 313°
2026-04-21 14:42 6.90464 -1.79730 35246 ft 494 kts 313°
2026-04-21 14:43 6.92839 -1.82240 35538 ft 494 kts 313°
2026-04-21 14:43 6.95206 -1.84742 35831 ft 493 kts 313°
2026-04-21 14:43 6.96713 -1.86336 36013 ft 493 kts 313°
2026-04-21 14:43 6.99084 -1.88841 36292 ft 493 kts 313°
2026-04-21 14:44 7.01445 -1.91336 36556 ft 493 kts 313°
2026-04-21 14:44 7.03814 -1.93840 36817 ft 493 kts 313°
2026-04-21 14:44 7.05366 -1.95481 36996 ft 493 kts 313°
2026-04-21 14:44 7.07722 -1.97971 37372 ft 489 kts 313°
2026-04-21 14:45 7.10058 -2.00440 37829 ft 485 kts 313°
2026-04-21 14:45 7.13858 -2.04458 37836 ft 491 kts 313°
2026-04-21 14:46 7.18564 -2.09436 37841 ft 489 kts 313°
2026-04-21 14:46 7.22430 -2.13528 37844 ft 487 kts 313°
2026-04-21 14:47 7.26938 -2.18299 37848 ft 485 kts 313°
2026-04-21 14:47 7.30778 -2.22365 37848 ft 484 kts 313°
2026-04-21 14:48 7.35415 -2.27277 37845 ft 483 kts 313°
2026-04-21 14:48 7.39247 -2.31337 37846 ft 484 kts 312°
2026-04-21 14:49 7.43852 -2.36234 37845 ft 485 kts 312°
2026-04-21 14:49 7.47644 -2.40272 37844 ft 485 kts 312°
2026-04-21 14:50 7.51536 -2.44418 37846 ft 486 kts 312°
2026-04-21 14:50 7.56105 -2.49284 37841 ft 488 kts 312°
2026-04-21 14:51 7.60778 -2.54262 37840 ft 489 kts 312°
2026-04-21 14:51 7.64638 -2.58376 37843 ft 490 kts 312°
2026-04-21 14:52 7.69320 -2.63368 37841 ft 490 kts 312°
2026-04-21 14:52 7.73132 -2.67433 37841 ft 491 kts 312°
2026-04-21 14:53 7.77823 -2.72437 37840 ft 491 kts 312°
2026-04-21 14:53 7.81702 -2.76577 37842 ft 491 kts 312°
2026-04-21 14:54 7.86393 -2.81575 37837 ft 490 kts 313°
2026-04-21 14:54 7.90301 -2.85674 37832 ft 490 kts 313°
2026-04-21 14:55 7.94233 -2.89783 37838 ft 489 kts 313°
2026-04-21 14:55 7.98928 -2.94706 37834 ft 489 kts 313°
2026-04-21 14:56 8.02844 -2.98818 37842 ft 488 kts 313°
2026-04-21 14:56 8.06671 -3.02875 37836 ft 488 kts 312°
2026-04-21 14:57 8.11323 -3.07872 37838 ft 487 kts 312°
2026-04-21 14:57 8.15093 -3.11925 37835 ft 487 kts 312°
2026-04-21 14:58 8.19724 -3.16896 37833 ft 486 kts 312°
2026-04-21 14:58 8.23512 -3.20958 37836 ft 485 kts 312°
2026-04-21 14:59 8.28141 -3.25925 37838 ft 485 kts 312°
2026-04-21 14:59 8.31958 -3.30021 37834 ft 484 kts 312°
2026-04-21 15:00 8.36565 -3.34969 37836 ft 483 kts 312°
2026-04-21 15:00 8.40337 -3.39021 37833 ft 482 kts 312°
2026-04-21 15:01 8.44927 -3.43952 37830 ft 481 kts 312°
2026-04-21 15:01 8.48672 -3.47978 37828 ft 480 kts 312°
2026-04-21 15:02 8.53228 -3.52879 37830 ft 477 kts 312°
2026-04-21 15:02 8.56954 -3.56888 37830 ft 475 kts 312°
2026-04-21 15:03 8.61469 -3.61750 37819 ft 473 kts 312°
2026-04-21 15:03 8.65176 -3.65742 37821 ft 470 kts 312°
2026-04-21 15:04 8.69636 -3.70546 37819 ft 467 kts 312°
2026-04-21 15:04 8.73302 -3.74498 37812 ft 465 kts 312°
2026-04-21 15:05 8.77723 -3.79265 37816 ft 463 kts 312°
2026-04-21 15:05 8.83554 -3.85554 37811 ft 460 kts 312°
2026-04-21 15:06 8.87261 -3.89554 37809 ft 459 kts 312°
2026-04-21 15:06 8.91505 -3.94135 37805 ft 459 kts 312°
2026-04-21 15:07 8.95131 -3.98050 37808 ft 459 kts 312°
2026-04-21 15:07 8.99442 -4.02708 37807 ft 459 kts 312°
2026-04-21 15:08 9.02985 -4.06535 37805 ft 460 kts 312°
2026-04-21 15:08 9.07392 -4.11299 37802 ft 460 kts 312°
2026-04-21 15:09 9.11014 -4.15215 37802 ft 460 kts 312°
2026-04-21 15:09 9.15390 -4.19949 37802 ft 461 kts 312°
2026-04-21 15:10 9.19007 -4.23862 37800 ft 461 kts 312°
2026-04-21 15:10 9.23389 -4.28605 37800 ft 461 kts 312°
2026-04-21 15:11 9.26980 -4.32494 37796 ft 461 kts 312°
2026-04-21 15:11 9.31334 -4.37209 37795 ft 461 kts 312°
2026-04-21 15:12 9.34909 -4.41083 37793 ft 460 kts 312°
2026-04-21 15:12 9.39279 -4.45821 37792 ft 460 kts 312°
2026-04-21 15:13 9.42895 -4.49741 37795 ft 460 kts 312°
2026-04-21 15:13 9.47259 -4.54475 37792 ft 460 kts 312°
2026-04-21 15:14 9.50832 -4.58352 37789 ft 460 kts 312°
2026-04-21 15:14 9.55199 -4.63093 37790 ft 459 kts 312°
2026-04-21 15:15 9.58802 -4.67006 37793 ft 459 kts 311°
2026-04-21 15:15 9.63165 -4.71745 37789 ft 459 kts 311°
2026-04-21 15:16 9.66735 -4.75626 37785 ft 459 kts 311°
2026-04-21 15:16 9.71094 -4.80365 37784 ft 459 kts 311°
2026-04-21 15:17 9.74663 -4.84247 37782 ft 460 kts 311°
2026-04-21 15:17 9.79024 -4.88991 37786 ft 460 kts 311°
2026-04-21 15:18 9.82633 -4.92919 37786 ft 460 kts 311°
2026-04-21 15:18 9.87001 -4.97675 37788 ft 461 kts 311°
2026-04-21 15:19 9.90616 -5.01614 37781 ft 461 kts 311°
2026-04-21 15:19 9.94968 -5.06357 37781 ft 462 kts 311°
2026-04-21 15:20 9.98590 -5.10306 37787 ft 462 kts 311°
2026-04-21 15:20 10.02975 -5.15085 37782 ft 463 kts 311°
2026-04-21 15:21 10.06596 -5.19030 37779 ft 463 kts 311°
2026-04-21 15:21 10.10985 -5.23813 37777 ft 463 kts 311°
2026-04-21 15:22 10.14607 -5.27763 37787 ft 463 kts 311°
2026-04-21 15:22 10.18964 -5.32517 37784 ft 462 kts 311°
2026-04-21 15:23 10.22582 -5.36467 37785 ft 462 kts 311°
2026-04-21 15:23 10.26958 -5.41247 37788 ft 462 kts 311°
2026-04-21 15:24 10.30525 -5.45144 37786 ft 461 kts 311°
2026-04-21 15:24 10.34896 -5.49922 37795 ft 461 kts 311°
2026-04-21 15:25 10.38471 -5.53831 37788 ft 461 kts 311°
2026-04-21 15:25 10.42810 -5.58569 37787 ft 460 kts 311°
2026-04-21 15:26 10.46417 -5.62508 37791 ft 460 kts 311°
2026-04-21 15:26 10.50774 -5.67270 37790 ft 460 kts 311°
2026-04-21 15:27 10.54378 -5.71213 37790 ft 459 kts 311°
2026-04-21 15:27 10.58727 -5.75972 37790 ft 459 kts 311°
2026-04-21 15:28 10.62320 -5.79904 37782 ft 459 kts 311°
2026-04-21 15:28 10.66660 -5.84657 37785 ft 459 kts 311°
2026-04-21 15:29 10.70209 -5.88546 37787 ft 458 kts 311°
2026-04-21 15:29 10.74545 -5.93299 37787 ft 458 kts 311°
2026-04-21 15:30 10.78089 -5.97185 37785 ft 457 kts 311°
2026-04-21 15:30 10.82416 -6.01932 37779 ft 457 kts 310°
2026-04-21 15:31 10.85982 -6.05846 37778 ft 457 kts 310°
2026-04-21 15:31 10.90280 -6.10566 37769 ft 457 kts 310°
2026-04-21 15:32 10.93849 -6.14486 37782 ft 456 kts 310°
2026-04-21 15:32 10.98161 -6.19227 37774 ft 456 kts 310°
2026-04-21 15:33 11.01686 -6.23106 37780 ft 456 kts 310°
2026-04-21 15:33 11.05997 -6.27851 37785 ft 456 kts 310°
2026-04-21 15:34 11.09553 -6.31768 37784 ft 456 kts 310°
2026-04-21 15:34 11.13857 -6.36512 37784 ft 456 kts 310°
2026-04-21 15:35 11.17406 -6.40424 37779 ft 456 kts 310°
2026-04-21 15:35 11.21708 -6.45168 37775 ft 456 kts 310°
2026-04-21 15:36 11.25265 -6.49092 37769 ft 456 kts 310°
2026-04-21 15:36 11.29538 -6.53809 37783 ft 456 kts 310°
2026-04-21 15:37 11.33088 -6.57729 37775 ft 456 kts 310°
2026-04-21 15:37 11.37392 -6.62483 37780 ft 456 kts 310°
2026-04-21 15:38 11.40943 -6.66408 37783 ft 457 kts 310°
2026-04-21 15:38 11.45251 -6.71172 37783 ft 457 kts 310°
2026-04-21 15:39 11.48822 -6.75123 37786 ft 458 kts 310°
2026-04-21 15:39 11.53141 -6.79903 37770 ft 459 kts 310°
2026-04-21 15:40 11.55951 -6.83014 37798 ft 459 kts 310°
2026-04-21 15:40 11.60994 -6.88600 37803 ft 460 kts 309°
2026-04-21 15:41 11.64580 -6.92573 37781 ft 461 kts 309°
2026-04-21 15:41 11.68190 -6.96575 37786 ft 461 kts 309°
2026-04-21 15:42 11.71785 -7.00562 37788 ft 461 kts 309°
2026-04-21 15:42 11.76132 -7.05385 37787 ft 461 kts 309°
2026-04-21 15:43 11.79732 -7.09381 37789 ft 461 kts 309°
2026-04-21 15:43 11.84072 -7.14202 37793 ft 461 kts 309°
2026-04-21 15:44 11.87661 -7.18190 37791 ft 461 kts 309°
2026-04-21 15:44 11.92001 -7.23013 37796 ft 461 kts 309°
2026-04-21 15:45 11.95589 -7.27004 37796 ft 461 kts 309°
2026-04-21 15:45 11.99923 -7.31827 37796 ft 460 kts 309°
2026-04-21 15:46 12.03510 -7.35820 37801 ft 460 kts 309°
2026-04-21 15:46 12.07815 -7.40614 37798 ft 460 kts 309°
2026-04-21 15:47 12.11400 -7.44610 37802 ft 460 kts 309°
2026-04-21 15:47 12.15728 -7.49434 37801 ft 460 kts 309°
2026-04-21 15:48 12.19248 -7.53360 37807 ft 460 kts 309°
2026-04-21 15:48 12.23575 -7.58188 37802 ft 460 kts 309°
2026-04-21 15:49 12.27110 -7.62134 37804 ft 460 kts 309°
2026-04-21 15:49 12.31428 -7.66958 37804 ft 460 kts 309°
2026-04-21 15:50 12.34963 -7.70908 37806 ft 459 kts 309°
2026-04-21 15:50 12.39273 -7.75727 37802 ft 459 kts 309°
2026-04-21 15:51 12.42792 -7.79663 37805 ft 459 kts 309°
2026-04-21 15:51 12.47099 -7.84485 37807 ft 458 kts 309°
2026-04-21 15:52 12.50589 -7.88392 37802 ft 458 kts 309°
2026-04-21 15:52 12.55405 -7.92695 37808 ft 464 kts 322°
2026-04-21 15:53 12.60094 -7.95388 37800 ft 470 kts 332°
2026-04-21 15:53 12.66153 -7.97928 37805 ft 471 kts 334°
2026-04-21 15:54 12.71143 -7.99955 37810 ft 471 kts 334°
2026-04-21 15:54 12.77224 -8.02462 37799 ft 471 kts 333°
2026-04-21 15:55 12.82181 -8.04534 37805 ft 471 kts 333°
2026-04-21 15:55 12.88237 -8.07082 37796 ft 470 kts 333°
2026-04-21 15:56 12.93243 -8.09191 37803 ft 470 kts 333°
2026-04-21 15:56 12.99300 -8.11743 37800 ft 470 kts 333°
2026-04-21 15:57 13.04256 -8.13831 37793 ft 470 kts 333°
2026-04-21 15:57 13.10259 -8.16361 37793 ft 469 kts 333°
2026-04-21 15:58 13.15269 -8.18473 37786 ft 469 kts 333°
2026-04-21 15:58 13.21220 -8.20984 37783 ft 469 kts 333°
2026-04-21 15:59 13.26263 -8.23112 37786 ft 468 kts 333°
2026-04-21 15:59 13.31316 -8.25246 37785 ft 468 kts 332°
2026-04-21 16:00 13.37275 -8.27763 37778 ft 468 kts 332°
2026-04-21 16:00 13.42277 -8.29877 37780 ft 468 kts 332°
2026-04-21 16:01 13.48285 -8.32418 37777 ft 468 kts 332°
2026-04-21 16:01 13.53288 -8.34534 37776 ft 468 kts 332°
2026-04-21 16:02 13.59233 -8.37051 37777 ft 469 kts 332°
2026-04-21 16:02 13.64263 -8.39182 37775 ft 470 kts 332°
2026-04-21 16:03 13.70240 -8.41714 37768 ft 470 kts 332°
2026-04-21 16:03 13.75266 -8.43844 37772 ft 470 kts 332°
2026-04-21 16:04 13.81226 -8.46372 37763 ft 469 kts 332°
2026-04-21 16:04 13.86503 -8.48611 37757 ft 468 kts 332°
2026-04-21 16:05 13.92238 -8.51046 37758 ft 467 kts 332°
2026-04-21 16:05 13.97348 -8.53216 37758 ft 465 kts 332°
2026-04-21 16:06 14.03076 -8.55650 37753 ft 464 kts 332°
2026-04-21 16:06 14.08076 -8.57777 37755 ft 463 kts 332°
2026-04-21 16:07 14.13948 -8.60276 37752 ft 461 kts 332°
2026-04-21 16:07 14.18795 -8.62339 37750 ft 461 kts 331°
2026-04-21 16:08 14.27722 -8.66142 37751 ft 460 kts 331°
2026-04-21 16:09 14.32552 -8.68201 37745 ft 460 kts 331°
2026-04-21 16:09 14.38466 -8.70723 37746 ft 459 kts 331°
2026-04-21 16:10 14.43315 -8.72792 37742 ft 459 kts 331°
2026-04-21 16:10 14.49213 -8.75310 37749 ft 459 kts 331°
2026-04-21 16:11 14.54025 -8.77366 37743 ft 458 kts 331°
2026-04-21 16:11 14.59921 -8.79887 37745 ft 458 kts 331°
2026-04-21 16:12 14.63773 -8.81534 37742 ft 458 kts 330°
2026-04-21 16:12 14.70654 -8.84478 37743 ft 457 kts 330°
2026-04-21 16:13 14.75479 -8.86544 37740 ft 456 kts 330°
2026-04-21 16:13 14.81342 -8.89058 37746 ft 456 kts 330°
2026-04-21 16:14 14.86120 -8.91109 37734 ft 455 kts 330°
2026-04-21 16:14 14.91964 -8.93618 37750 ft 454 kts 330°
2026-04-21 16:15 14.96719 -8.95661 37741 ft 454 kts 330°
2026-04-21 16:15 15.02552 -8.98169 37745 ft 453 kts 330°
2026-04-21 16:16 15.07360 -9.00237 37743 ft 453 kts 330°
2026-04-21 16:16 15.13174 -9.02738 37744 ft 452 kts 330°
2026-04-21 16:17 15.17933 -9.04787 37739 ft 451 kts 330°
2026-04-21 16:17 15.23728 -9.07284 37746 ft 450 kts 330°
2026-04-21 16:18 15.28501 -9.09341 37746 ft 450 kts 330°
2026-04-21 16:18 15.34283 -9.11835 37747 ft 449 kts 329°
2026-04-21 16:19 15.39036 -9.13886 37742 ft 448 kts 329°
2026-04-21 16:19 15.44752 -9.16353 37745 ft 447 kts 329°
2026-04-21 16:20 15.49448 -9.18382 37731 ft 446 kts 329°
2026-04-21 16:20 15.55168 -9.20854 37753 ft 445 kts 329°
2026-04-21 16:21 15.59840 -9.22875 37740 ft 444 kts 329°
2026-04-21 16:21 15.65538 -9.25340 37746 ft 443 kts 329°
2026-04-21 16:22 15.70244 -9.27378 37741 ft 443 kts 329°
2026-04-21 16:22 15.75938 -9.29845 37748 ft 442 kts 329°
2026-04-21 16:23 15.80630 -9.31878 37748 ft 442 kts 329°
2026-04-21 16:23 15.86284 -9.34331 37750 ft 441 kts 329°
2026-04-21 16:24 15.90958 -9.36359 37744 ft 441 kts 329°
2026-04-21 16:24 15.95707 -9.38421 37747 ft 441 kts 329°
2026-04-21 16:25 16.01294 -9.40848 37743 ft 440 kts 329°
2026-04-21 16:25 16.05995 -9.42892 37750 ft 440 kts 328°
2026-04-21 16:26 16.11592 -9.45320 37749 ft 440 kts 329°
2026-04-21 16:26 16.16336 -9.47362 37753 ft 439 kts 329°
2026-04-21 16:27 16.21939 -9.49777 37749 ft 439 kts 329°
2026-04-21 16:27 16.26622 -9.51799 37752 ft 438 kts 328°
2026-04-21 16:28 16.31277 -9.53822 37753 ft 438 kts 328°
2026-04-21 16:28 16.36891 -9.56269 37758 ft 437 kts 328°
2026-04-21 16:29 16.41467 -9.58264 37760 ft 437 kts 328°
2026-04-21 16:29 16.47070 -9.60707 37764 ft 436 kts 328°
2026-04-21 16:30 16.51647 -9.62704 37765 ft 436 kts 328°
2026-04-21 16:30 16.57204 -9.65129 37765 ft 435 kts 328°
2026-04-21 16:31 16.61812 -9.67141 37755 ft 434 kts 328°
2026-04-21 16:31 16.67385 -9.69576 37783 ft 433 kts 328°
2026-04-21 16:32 16.71965 -9.71578 37763 ft 433 kts 328°
2026-04-21 16:32 16.77453 -9.73980 37769 ft 432 kts 328°
2026-04-21 16:33 16.82094 -9.76011 37770 ft 431 kts 328°
2026-04-21 16:33 16.86690 -9.78024 37774 ft 431 kts 328°
2026-04-21 16:34 16.92202 -9.80440 37765 ft 430 kts 327°
2026-04-21 16:34 16.96784 -9.82449 37772 ft 429 kts 327°
2026-04-21 16:35 17.02175 -9.84814 37777 ft 429 kts 327°
2026-04-21 16:35 17.07323 -9.87074 37780 ft 428 kts 327°
2026-04-21 16:36 17.12202 -9.89217 37786 ft 427 kts 327°
2026-04-21 16:36 17.17220 -9.91422 37775 ft 427 kts 327°
2026-04-21 16:37 17.22177 -9.93603 37776 ft 427 kts 327°
2026-04-21 16:37 17.27077 -9.95758 37775 ft 427 kts 327°
2026-04-21 16:38 17.32176 -9.98003 37777 ft 426 kts 327°
2026-04-21 16:38 17.36998 -10.00127 37776 ft 425 kts 327°
2026-04-21 16:39 17.42106 -10.02380 37777 ft 425 kts 327°
2026-04-21 16:39 17.46783 -10.04442 37779 ft 424 kts 327°
2026-04-21 16:40 17.52003 -10.06746 37778 ft 424 kts 327°
2026-04-21 16:40 17.56553 -10.08755 37787 ft 423 kts 327°
2026-04-21 16:41 17.61859 -10.11099 37772 ft 423 kts 327°
2026-04-21 16:41 17.66286 -10.13056 37780 ft 422 kts 327°
2026-04-21 16:42 17.71695 -10.15449 37778 ft 422 kts 327°
2026-04-21 16:42 17.75999 -10.17354 37783 ft 421 kts 327°
2026-04-21 16:43 17.81500 -10.19791 37775 ft 421 kts 327°
2026-04-21 16:43 17.85884 -10.21735 37780 ft 420 kts 327°
2026-04-21 16:44 17.91264 -10.24121 37785 ft 420 kts 327°
2026-04-21 16:44 17.95691 -10.26086 37801 ft 420 kts 327°
2026-04-21 16:45 18.01076 -10.28476 37789 ft 420 kts 327°
2026-04-21 16:45 18.05519 -10.30443 37788 ft 420 kts 327°
2026-04-21 16:46 18.10907 -10.32829 37785 ft 420 kts 327°
2026-04-21 16:46 18.15329 -10.34789 37791 ft 420 kts 327°
2026-04-21 16:46 18.18034 -10.35991 37646 ft 423 kts 327°
2026-04-21 16:47 18.20759 -10.37203 37732 ft 427 kts 327°
2026-04-21 16:47 18.25271 -10.39211 37799 ft 435 kts 327°
2026-04-21 16:48 18.30893 -10.41709 37790 ft 440 kts 327°
2026-04-21 16:48 18.35562 -10.43779 37789 ft 440 kts 328°
2026-04-21 16:49 18.41211 -10.46288 37797 ft 440 kts 328°
2026-04-21 16:49 18.45869 -10.48361 37802 ft 439 kts 328°
2026-04-21 16:50 18.51492 -10.50867 37803 ft 438 kts 328°
2026-04-21 16:50 18.56035 -10.52891 37795 ft 436 kts 328°
2026-04-21 16:51 18.61618 -10.55384 37806 ft 435 kts 328°
2026-04-21 16:51 18.66155 -10.57415 37804 ft 434 kts 328°
2026-04-21 16:52 18.71698 -10.59898 37805 ft 432 kts 328°
2026-04-21 16:52 18.76267 -10.61946 37813 ft 432 kts 328°
2026-04-21 16:53 18.81803 -10.64429 37802 ft 432 kts 328°
2026-04-21 16:53 18.86374 -10.66481 37808 ft 432 kts 328°
2026-04-21 16:54 18.91909 -10.68966 37810 ft 433 kts 328°
2026-04-21 16:54 18.96476 -10.71019 37818 ft 433 kts 328°
2026-04-21 16:55 19.02020 -10.73512 37815 ft 433 kts 328°
2026-04-21 16:55 19.06568 -10.75558 37814 ft 433 kts 328°
2026-04-21 16:56 19.12119 -10.78057 37815 ft 434 kts 328°
2026-04-21 16:56 19.16719 -10.80129 37811 ft 434 kts 328°
2026-04-21 16:57 19.22270 -10.82631 37817 ft 433 kts 328°
2026-04-21 16:57 19.26859 -10.84701 37817 ft 433 kts 328°
2026-04-21 16:58 19.32397 -10.87201 37816 ft 432 kts 328°
2026-04-21 16:58 19.36972 -10.89268 37814 ft 432 kts 328°
2026-04-21 16:59 19.42459 -10.91748 37816 ft 431 kts 328°
2026-04-21 16:59 19.46951 -10.93780 37810 ft 431 kts 328°
2026-04-21 17:00 19.51569 -10.95870 37813 ft 430 kts 328°
2026-04-21 17:00 19.56070 -10.97909 37814 ft 430 kts 327°
2026-04-21 17:01 19.62460 -11.00805 37807 ft 429 kts 327°
2026-04-21 17:01 19.66951 -11.02842 37815 ft 429 kts 327°
2026-04-21 17:02 19.72436 -11.05332 37823 ft 429 kts 327°
2026-04-21 17:02 19.76961 -11.07387 37813 ft 428 kts 327°
2026-04-21 17:03 19.82449 -11.09882 37812 ft 428 kts 327°
2026-04-21 17:03 19.86986 -11.11946 37818 ft 428 kts 327°
2026-04-21 17:04 19.92428 -11.14423 37815 ft 428 kts 327°
2026-04-21 17:04 19.96905 -11.16462 37810 ft 428 kts 327°
2026-04-21 17:05 20.02375 -11.18955 37815 ft 427 kts 327°
2026-04-21 17:05 20.06834 -11.20989 37817 ft 427 kts 327°
2026-04-21 17:06 20.12297 -11.23483 37817 ft 427 kts 327°
2026-04-21 17:06 20.16810 -11.25545 37814 ft 426 kts 327°
2026-04-21 17:07 20.21342 -11.27617 37820 ft 426 kts 327°
2026-04-21 17:07 20.26713 -11.30075 37824 ft 425 kts 327°
2026-04-21 17:08 20.32139 -11.32560 37813 ft 424 kts 327°
2026-04-21 17:08 20.36632 -11.34619 37814 ft 424 kts 327°
2026-04-21 17:09 20.43809 -11.37911 37820 ft 423 kts 327°
2026-04-21 17:09 20.49208 -11.40389 37827 ft 422 kts 327°
2026-04-21 17:10 20.53674 -11.42441 37827 ft 422 kts 327°
2026-04-21 17:10 20.59039 -11.44908 37826 ft 422 kts 327°
2026-04-21 17:11 20.63443 -11.46934 37823 ft 421 kts 327°
2026-04-21 17:11 20.68828 -11.49413 37828 ft 421 kts 327°
2026-04-21 17:12 20.73213 -11.51432 37830 ft 420 kts 327°
2026-04-21 17:12 20.77679 -11.53491 37833 ft 420 kts 327°
2026-04-21 17:13 20.82987 -11.55940 37835 ft 419 kts 327°
2026-04-21 17:13 20.88345 -11.58413 37832 ft 419 kts 327°
2026-04-21 17:14 20.91963 -11.60085 37831 ft 418 kts 327°
2026-04-21 17:14 20.97197 -11.62504 37835 ft 417 kts 327°
2026-04-21 17:15 21.01589 -11.64535 37831 ft 416 kts 327°
2026-04-21 17:15 21.06855 -11.66973 37827 ft 415 kts 326°
2026-04-21 17:16 21.11110 -11.68944 37824 ft 414 kts 326°
2026-04-21 17:16 21.16476 -11.71432 37823 ft 413 kts 326°
2026-04-21 17:17 21.20835 -11.73454 37823 ft 413 kts 326°
2026-04-21 17:17 21.26099 -11.75898 37823 ft 412 kts 326°
2026-04-21 17:18 21.30444 -11.77917 37821 ft 412 kts 326°
2026-04-21 17:18 21.35666 -11.80346 37809 ft 411 kts 326°
2026-04-21 17:19 21.39994 -11.82359 37833 ft 411 kts 326°
2026-04-21 17:19 21.45244 -11.84803 37813 ft 411 kts 326°
2026-04-21 17:20 21.49571 -11.86820 37820 ft 410 kts 326°
2026-04-21 17:20 21.54812 -11.89264 37821 ft 411 kts 326°
2026-04-21 17:21 21.59099 -11.91263 37820 ft 411 kts 326°
2026-04-21 17:21 21.64344 -11.93707 37820 ft 411 kts 326°
2026-04-21 17:22 21.68678 -11.95728 37817 ft 410 kts 326°
2026-04-21 17:22 21.73909 -11.98170 37819 ft 410 kts 326°
2026-04-21 17:23 21.78146 -12.00150 37813 ft 409 kts 326°
2026-04-21 17:23 21.83364 -12.02590 37818 ft 409 kts 326°
2026-04-21 17:24 21.87661 -12.04600 37813 ft 408 kts 326°
2026-04-21 17:24 21.92867 -12.07039 37816 ft 407 kts 326°
2026-04-21 17:25 21.97095 -12.09021 37812 ft 407 kts 326°
2026-04-21 17:25 22.02286 -12.11456 37805 ft 407 kts 326°
2026-04-21 17:26 22.06511 -12.13438 37809 ft 406 kts 326°
2026-04-21 17:26 22.11690 -12.15870 37813 ft 405 kts 326°
2026-04-21 17:27 22.15864 -12.17832 37820 ft 405 kts 326°
2026-04-21 17:27 22.21027 -12.20261 37811 ft 404 kts 326°
2026-04-21 17:28 22.25268 -12.22258 37815 ft 404 kts 326°
2026-04-21 17:28 22.30421 -12.24686 37817 ft 404 kts 326°
2026-04-21 17:29 22.34653 -12.26681 37824 ft 404 kts 326°
2026-04-21 17:29 22.39804 -12.29112 37824 ft 404 kts 326°
2026-04-21 17:30 22.44040 -12.31111 37828 ft 404 kts 326°
2026-04-21 17:30 22.49186 -12.33543 37829 ft 403 kts 326°
2026-04-21 17:31 22.53366 -12.35519 37817 ft 403 kts 326°
2026-04-21 17:31 22.58496 -12.37946 37832 ft 402 kts 326°
2026-04-21 17:32 22.62682 -12.39929 37830 ft 402 kts 326°
2026-04-21 17:32 22.67809 -12.42360 37831 ft 402 kts 325°
2026-04-21 17:33 22.72025 -12.44360 37829 ft 402 kts 325°
2026-04-21 17:33 22.77106 -12.46837 37827 ft 398 kts 323°
2026-04-21 17:34 22.81164 -12.49048 37832 ft 396 kts 322°
2026-04-21 17:34 22.86075 -12.51770 37830 ft 396 kts 322°
2026-04-21 17:35 22.90067 -12.53979 37830 ft 396 kts 322°
2026-04-21 17:35 22.94983 -12.56693 37835 ft 396 kts 322°
2026-04-21 17:36 22.98999 -12.58908 37836 ft 396 kts 322°
2026-04-21 17:36 23.03911 -12.61617 37836 ft 396 kts 322°
2026-04-21 17:37 23.07893 -12.63816 37837 ft 396 kts 322°
2026-04-21 17:37 23.12806 -12.66530 37845 ft 396 kts 322°
2026-04-21 17:38 23.16861 -12.68772 37833 ft 396 kts 322°
2026-04-21 17:38 23.21777 -12.71493 37837 ft 396 kts 322°
2026-04-21 17:39 23.25830 -12.73736 37845 ft 396 kts 322°
2026-04-21 17:39 23.30714 -12.76444 37847 ft 396 kts 322°
2026-04-21 17:40 23.34740 -12.78676 37845 ft 397 kts 322°
2026-04-21 17:40 23.39661 -12.81408 37853 ft 397 kts 323°
2026-04-21 17:41 23.43730 -12.83668 37848 ft 397 kts 323°
2026-04-21 17:41 23.48620 -12.86386 37848 ft 397 kts 323°
2026-04-21 17:42 23.52694 -12.88653 37852 ft 397 kts 323°
2026-04-21 17:42 23.57620 -12.91396 37857 ft 398 kts 323°
2026-04-21 17:43 23.61652 -12.93642 37852 ft 398 kts 323°
2026-04-21 17:43 23.66588 -12.96394 37853 ft 398 kts 323°
2026-04-21 17:44 23.70589 -12.98680 37855 ft 395 kts 320°
2026-04-21 17:44 23.75278 -13.01772 37850 ft 393 kts 319°
2026-04-21 17:45 23.79124 -13.04352 37858 ft 393 kts 319°
2026-04-21 17:45 23.83783 -13.07475 37863 ft 393 kts 319°
2026-04-21 17:46 23.87599 -13.10028 37866 ft 393 kts 319°
2026-04-21 17:46 23.92268 -13.13149 37861 ft 393 kts 319°
2026-04-21 17:47 23.96087 -13.15703 37865 ft 394 kts 319°
2026-04-21 17:47 24.00758 -13.18829 37868 ft 394 kts 320°
2026-04-21 17:48 24.04618 -13.21414 37861 ft 394 kts 320°
2026-04-21 17:48 24.09306 -13.24555 37871 ft 395 kts 320°
2026-04-21 17:49 24.13174 -13.27150 37870 ft 396 kts 320°
2026-04-21 17:49 24.17872 -13.30305 37866 ft 397 kts 320°
2026-04-21 17:50 24.21716 -13.32887 37869 ft 397 kts 320°
2026-04-21 17:50 24.26423 -13.36052 37858 ft 397 kts 320°
2026-04-21 17:51 24.30313 -13.38669 37861 ft 397 kts 320°
2026-04-21 17:51 24.35003 -13.41827 37864 ft 398 kts 320°
2026-04-21 17:52 24.38845 -13.44416 37880 ft 398 kts 320°
2026-04-21 17:52 24.43571 -13.47605 37879 ft 398 kts 320°
2026-04-21 17:53 24.47146 -13.50019 37875 ft 399 kts 320°
2026-04-21 17:53 24.51885 -13.53220 37879 ft 399 kts 320°
2026-04-21 17:54 24.55530 -13.55684 37878 ft 400 kts 320°
2026-04-21 17:54 24.60238 -13.58870 37884 ft 400 kts 320°
2026-04-21 17:55 24.63853 -13.61319 37880 ft 401 kts 320°
2026-04-21 17:55 24.68612 -13.64544 37881 ft 401 kts 320°
2026-04-21 17:56 24.72352 -13.67081 37880 ft 402 kts 320°
2026-04-21 17:56 24.77116 -13.70315 37879 ft 403 kts 320°
2026-04-21 17:57 24.80948 -13.72919 37884 ft 403 kts 320°
2026-04-21 17:57 24.84917 -13.75617 37887 ft 404 kts 320°
2026-04-21 17:58 24.88821 -13.78274 37886 ft 404 kts 321°
2026-04-21 17:58 24.93614 -13.81539 37887 ft 405 kts 321°
2026-04-21 17:59 24.97536 -13.84212 37884 ft 406 kts 321°
2026-04-21 17:59 25.02318 -13.87473 37889 ft 406 kts 321°
2026-04-21 18:00 25.06309 -13.90197 37893 ft 407 kts 321°
2026-04-21 18:00 25.11137 -13.93494 37892 ft 408 kts 321°
2026-04-21 18:01 25.15116 -13.96215 37894 ft 408 kts 321°
2026-04-21 18:01 25.19916 -13.99499 37901 ft 408 kts 321°
2026-04-21 18:02 25.23894 -14.02223 37904 ft 408 kts 321°
2026-04-21 18:02 25.28729 -14.05538 37899 ft 409 kts 321°
2026-04-21 18:03 25.32761 -14.08305 37900 ft 410 kts 321°
2026-04-21 18:03 25.37607 -14.11632 37903 ft 410 kts 321°
2026-04-21 18:04 25.41641 -14.14405 37901 ft 411 kts 321°
2026-04-21 18:04 25.46468 -14.17726 37906 ft 411 kts 321°
2026-04-21 18:05 25.50458 -14.20473 37912 ft 412 kts 321°
2026-04-21 18:05 25.55331 -14.23831 37915 ft 412 kts 321°
2026-04-21 18:06 25.59344 -14.26599 37916 ft 413 kts 321°
2026-04-21 18:06 25.63401 -14.29401 37916 ft 413 kts 321°
2026-04-21 18:07 25.68284 -14.32775 37928 ft 414 kts 321°
2026-04-21 18:07 25.72344 -14.35582 37924 ft 414 kts 321°
2026-04-21 18:08 25.77214 -14.38948 37925 ft 415 kts 321°
2026-04-21 18:08 25.81287 -14.41763 37925 ft 415 kts 321°
2026-04-21 18:09 25.86175 -14.45144 37929 ft 415 kts 321°
2026-04-21 18:09 25.90727 -14.48298 37925 ft 416 kts 321°
2026-04-21 18:10 25.95129 -14.51351 37939 ft 416 kts 322°
2026-04-21 18:10 25.99592 -14.54448 37938 ft 416 kts 322°
2026-04-21 18:11 26.04146 -14.57612 37936 ft 417 kts 322°
2026-04-21 18:11 26.08494 -14.60636 37940 ft 417 kts 322°
2026-04-21 18:12 26.13131 -14.63862 37944 ft 417 kts 322°
2026-04-21 18:12 26.17444 -14.66774 37938 ft 419 kts 323°
2026-04-21 18:13 26.22269 -14.69899 37945 ft 419 kts 323°
2026-04-21 18:13 26.26543 -14.72664 37941 ft 419 kts 323°
2026-04-21 18:14 26.34033 -14.77546 37942 ft 420 kts 323°
2026-04-21 18:15 26.38157 -14.80246 37948 ft 420 kts 323°
2026-04-21 18:15 26.43203 -14.83554 37947 ft 421 kts 323°
2026-04-21 18:16 26.47357 -14.86280 37947 ft 421 kts 323°
2026-04-21 18:16 26.52407 -14.89596 37946 ft 421 kts 324°
2026-04-21 18:17 26.56575 -14.92336 37945 ft 422 kts 324°
2026-04-21 18:17 26.61637 -14.95666 37946 ft 422 kts 324°
2026-04-21 18:18 26.65769 -14.98387 37948 ft 422 kts 324°
2026-04-21 18:18 26.70834 -15.01726 37947 ft 422 kts 324°
2026-04-21 18:19 26.75015 -15.04484 37951 ft 422 kts 324°
2026-04-21 18:19 26.80085 -15.07833 37946 ft 423 kts 324°
2026-04-21 18:20 26.84254 -15.10589 37949 ft 423 kts 324°
2026-04-21 18:20 26.89324 -15.13944 37947 ft 423 kts 324°
2026-04-21 18:21 26.93544 -15.16739 37952 ft 423 kts 324°
2026-04-21 18:21 26.98623 -15.20107 37951 ft 424 kts 324°
2026-04-21 18:22 27.02833 -15.22901 37951 ft 424 kts 324°
2026-04-21 18:22 27.07927 -15.26285 37952 ft 424 kts 324°
2026-04-21 18:23 27.12136 -15.29080 37950 ft 425 kts 324°
2026-04-21 18:23 27.17225 -15.32459 37953 ft 425 kts 324°
2026-04-21 18:24 27.21440 -15.35260 37952 ft 425 kts 324°
2026-04-21 18:24 27.26535 -15.38651 37948 ft 426 kts 324°
2026-04-21 18:25 27.30783 -15.41480 37952 ft 426 kts 324°
2026-04-21 18:25 27.35872 -15.44872 37913 ft 420 kts 324°
2026-04-21 18:25 27.37542 -15.45986 37521 ft 420 kts 325°
2026-04-21 18:26 27.40054 -15.47663 36907 ft 419 kts 325°
2026-04-21 18:26 27.42566 -15.49342 36180 ft 421 kts 326°
2026-04-21 18:26 27.45105 -15.51042 35366 ft 429 kts 326°
2026-04-21 18:26 27.46792 -15.52173 34792 ft 440 kts 327°
2026-04-21 18:27 27.49511 -15.53996 33818 ft 457 kts 327°
2026-04-21 18:27 27.52264 -15.55838 32681 ft 462 kts 328°
2026-04-21 18:27 27.54991 -15.57662 31851 ft 460 kts 328°
2026-04-21 18:27 27.56769 -15.58851 31363 ft 458 kts 328°
2026-04-21 18:28 27.59496 -15.60677 30636 ft 454 kts 328°
2026-04-21 18:28 27.62195 -15.62487 29912 ft 451 kts 328°
2026-04-21 18:28 27.64886 -15.64293 29116 ft 448 kts 328°
2026-04-21 18:28 27.66624 -15.65461 28648 ft 446 kts 328°
2026-04-21 18:29 27.69257 -15.67264 27961 ft 437 kts 324°
2026-04-21 18:29 27.71493 -15.69564 27290 ft 433 kts 310°
2026-04-21 18:29 27.73150 -15.72389 26623 ft 431 kts 296°
2026-04-21 18:29 27.73869 -15.74424 26180 ft 427 kts 290°
2026-04-21 18:30 27.74817 -15.77604 25546 ft 425 kts 290°
2026-04-21 18:30 27.75761 -15.80776 24863 ft 429 kts 289°
2026-04-21 18:30 27.76735 -15.84008 24540 ft 436 kts 290°
2026-04-21 18:30 27.77392 -15.86164 24187 ft 445 kts 290°
2026-04-21 18:31 27.78417 -15.89499 23442 ft 451 kts 290°
2026-04-21 18:31 27.79454 -15.92849 22626 ft 448 kts 290°
2026-04-21 18:31 27.80467 -15.96114 21904 ft 444 kts 290°
2026-04-21 18:31 27.81115 -15.98200 21450 ft 441 kts 290°
2026-04-21 18:32 27.82124 -16.01448 20827 ft 435 kts 290°
2026-04-21 18:32 27.83117 -16.04649 20177 ft 424 kts 290°
2026-04-21 18:32 27.83761 -16.06726 19716 ft 423 kts 290°
2026-04-21 18:32 27.84715 -16.09804 19023 ft 421 kts 290°
2026-04-21 18:33 27.85678 -16.12919 18447 ft 416 kts 290°
2026-04-21 18:33 27.86625 -16.15981 17726 ft 405 kts 290°
2026-04-21 18:33 27.87238 -16.17963 17243 ft 402 kts 290°
2026-04-21 18:33 27.88143 -16.20895 16609 ft 400 kts 290°
2026-04-21 18:34 27.89030 -16.23860 16006 ft 397 kts 287°
2026-04-21 18:34 27.89570 -16.26904 15601 ft 391 kts 277°
2026-04-21 18:34 27.89707 -16.28912 15567 ft 383 kts 273°
2026-04-21 18:34 27.89704 -16.31855 15576 ft 388 kts 268°
2026-04-21 18:35 27.89573 -16.33883 15432 ft 389 kts 266°
2026-04-21 18:35 27.89282 -16.37904 14316 ft 375 kts 265°
2026-04-21 18:35 27.89138 -16.39831 13358 ft 370 kts 265°
2026-04-21 18:35 27.88922 -16.42721 11663 ft 371 kts 265°
2026-04-21 18:36 27.88712 -16.45580 11206 ft 360 kts 265°
2026-04-21 18:36 27.88509 -16.48376 10902 ft 350 kts 265°
2026-04-21 18:36 27.88380 -16.50173 10802 ft 341 kts 265°
2026-04-21 18:36 27.88199 -16.52763 10672 ft 328 kts 265°
2026-04-21 18:37 27.88134 -16.55287 10285 ft 317 kts 276°
2026-04-21 18:37 27.88745 -16.57673 9819 ft 317 kts 291°
2026-04-21 18:37 27.89350 -16.59181 9461 ft 305 kts 294°
2026-04-21 18:37 27.90272 -16.61280 8961 ft 301 kts 296°
2026-04-21 18:38 27.91219 -16.63394 8469 ft 301 kts 296°
2026-04-21 18:38 27.92145 -16.65460 8029 ft 284 kts 296°
2026-04-21 18:38 27.92733 -16.66769 7722 ft 281 kts 296°
2026-04-21 18:38 27.93586 -16.68688 7269 ft 279 kts 294°
2026-04-21 18:39 27.94036 -16.70791 6762 ft 277 kts 269°
2026-04-21 18:39 27.93692 -16.72922 6305 ft 277 kts 254°
2026-04-21 18:39 27.93301 -16.74294 5975 ft 273 kts 252°
2026-04-21 18:39 27.92696 -16.76254 5496 ft 255 kts 251°
2026-04-21 18:40 27.92118 -16.78098 5053 ft 252 kts 251°
2026-04-21 18:40 27.91531 -16.79972 4548 ft 253 kts 252°
2026-04-21 18:40 27.91369 -16.80615 4369 ft 250 kts 259°
2026-04-21 18:40 27.91716 -16.83031 4088 ft 230 kts 303°
2026-04-21 18:41 27.92857 -16.84142 3990 ft 207 kts 339°
2026-04-21 18:41 27.94195 -16.84211 3945 ft 187 kts 18°
2026-04-21 18:41 27.94876 -16.83748 3936 ft 193 kts 42°
2026-04-21 18:41 27.95631 -16.82386 3967 ft 195 kts 63°
2026-04-21 18:42 27.96186 -16.80977 3934 ft 196 kts 65°
2026-04-21 18:42 27.96701 -16.79546 3911 ft 195 kts 66°
2026-04-21 18:42 27.97024 -16.78621 3849 ft 188 kts 67°
2026-04-21 18:42 27.97497 -16.77259 3588 ft 181 kts 66°
2026-04-21 18:43 27.97936 -16.75992 3379 ft 169 kts 66°
2026-04-21 18:43 27.98365 -16.74758 3191 ft 169 kts 66°
2026-04-21 18:43 27.98647 -16.73946 3056 ft 169 kts 66°
2026-04-21 18:43 27.99079 -16.72702 2797 ft 169 kts 66°
2026-04-21 18:44 27.99504 -16.71481 2579 ft 166 kts 66°
2026-04-21 18:44 27.99923 -16.70269 2361 ft 165 kts 65°
2026-04-21 18:44 28.00196 -16.69484 2218 ft 165 kts 65°
2026-04-21 18:44 28.00618 -16.68273 2002 ft 167 kts 64°
2026-04-21 18:45 28.00901 -16.67459 1860 ft 168 kts 65°
2026-04-21 18:45 28.01325 -16.66234 1644 ft 166 kts 66°
2026-04-21 18:45 28.01656 -16.65281 1457 ft 165 kts 66°
2026-04-21 18:45 28.02155 -16.63843 1182 ft 163 kts 66°
2026-04-21 18:46 28.02434 -16.63040 1032 ft 161 kts 66°
2026-04-21 18:46 28.02966 -16.61509 751 ft 155 kts 68°
2026-04-21 18:46 28.03131 -16.61036 657 ft 154 kts 69°
2026-04-21 18:46 28.03470 -16.60046 491 ft 146 kts 68°
2026-04-21 18:47 28.03842 -16.58995 282 ft 142 kts 68°
2026-04-21 18:47 28.04193 -16.57983 216 ft 134 kts 68°
2026-04-21 18:47 28.04411 -16.57358 215 ft 102 kts 69°
2026-04-21 18:47 28.04595 -16.56842 224 ft 63 kts 68°
2026-04-21 18:48 28.04786 -16.56476 222 ft 49 kts 45°
2026-04-21 18:48 28.04920 -16.56338 223 ft 10 kts 12°
2026-04-21 18:48 28.04933 -16.56351 224 ft 4 kts 289°
2026-04-21 18:48 28.04927 -16.56386 224 ft 6 kts 252°
2026-04-21 18:49 28.04911 -16.56442 219 ft 9 kts 252°
2026-04-21 18:49 28.04887 -16.56528 220 ft 13 kts 252°
2026-04-21 18:49 28.04877 -16.56563 220 ft 14 kts 252°
2026-04-21 18:49 28.04815 -16.56764 219 ft 30 kts 249°
2026-04-21 18:50 28.04739 -16.56976 219 ft 24 kts 248°
2026-04-21 18:50 28.04698 -16.57088 219 ft 14 kts 243°
2026-04-21 18:50 28.04668 -16.57156 219 ft 15 kts 246°
2026-04-21 18:50 28.04627 -16.57278 212 ft 18 kts 250°
2026-04-21 18:51 28.04581 -16.57412 220 ft 19 kts 248°
2026-04-21 18:51 28.04538 -16.57553 215 ft 20 kts 253°
2026-04-21 18:51 28.04505 -16.57648 220 ft 21 kts 247°
2026-04-21 18:51 28.04462 -16.57767 215 ft 11 kts 248°
2026-04-21 18:52 28.04434 -16.57845 218 ft 0 kts 249°
2026-04-21 18:52 28.04433 -16.57848 218 ft 0 kts 249°
2026-04-21 18:54 28.04418 -16.57894 213 ft 16 kts 249°
2026-04-21 18:54 28.04381 -16.58004 213 ft 9 kts 249°
2026-04-21 18:55 28.04373 -16.58030 216 ft 9 kts 302°
2026-04-21 18:55 28.04427 -16.58054 223 ft 7 kts 339°
2026-04-21 18:55 28.04440 -16.58060 219 ft 3 kts 339°